Location: N�stved
(55.2249°N, 11.7842°E)
Time: 17:31:53
(UTC+00:00)

Daily predictions for brighter satellites

Satellite Brightness Start Highest point End
(mag) Time Altitude Azimuth Time Altitude Azimuth Time Altitude Azimuth
SPOT 1/Viking Rocket 3.6 19:58:14 10° SSE 20:03:27 90° NNE 20:08:40 10° NNW
Spot 2 Rocket 3.6 19:59:08 10° SSE 20:04:10 73° ENE 20:09:13 10° NNW
Cosmos 2297 4.5 20:00:55 10° S 20:05:55 33° ESE 20:10:55 10° NE
ISS -2.5 20:06:48 10° SSW 20:09:29 22° SSE 20:12:10 10° E
Meteor 1-11 Rocket 4.0 20:05:17 10° NNW 20:11:17 85° WSW 20:17:10 10° S
Cosmos 1340 Rocket 3.0 20:10:10 10° N 20:14:15 62° ENE 20:18:16 10° SSE
Cosmos 2082 Rocket 3.2 20:09:25 10° NW 20:14:39 41° WSW 20:19:52 10° S
Cosmos 1680 Rocket 3.8 20:10:39 10° NNW 20:15:58 69° WSW 20:21:15 10° SSE
Cosmos 2154 Rocket 4.1 20:09:39 10° N 20:16:02 82° E 20:22:19 10° SSE
Cosmos 2074 Rocket 4.4 20:13:36 10° NNW 20:19:54 70° W 20:26:09 10° S
SPOT 3 Rocket 4.5 20:15:22 10° S 20:20:20 47° W 20:25:19 10° NNW
Cosmos 2344 4.4 20:13:07 10° WNW 20:21:20 65° NNE 20:32:24 10° ESE
Cosmos 2184 Rocket 4.3 20:16:06 10° NNW 20:22:17 69° W 20:28:24 10° S
Cosmos 1943 Rocket 2.9 20:17:26 10° S 20:22:22 33° ESE 20:27:18 10° NE
Nadezhda 1 Rocket 4.1 20:17:31 10° S 20:23:41 63° E 20:29:47 10° NNE
Cosmos 1461 4.2 20:20:24 10° S 20:24:17 26° ESE 20:28:07 10° ENE
Cosmos 44 4.4 20:23:19 10° NW 20:28:25 41° WSW 20:33:20 10° SSE
Cosmos 1544 3.0 20:27:51 10° NNW 20:31:30 89° E 20:35:08 10° S
BREEZE-M R/B 3.0 20:29:53 10° WSW 20:31:57 24° S 20:33:56 12° SE
Iridium 4 Rocket 4.1 20:31:52 10° S 20:37:46 76° W 20:43:38 10° N
Cosmos 1271 Rocket 3.4 20:34:34 10° SSW 20:38:32 60° WNW 20:42:30 10° N
SL-27 R/B 4.1 20:36:09 10° N 20:38:55 23° NE 20:41:41 10° ESE
Cosmos 1536 3.3 20:35:52 10° NNW 20:39:52 60° W 20:43:49 10° S
Cosmos 1869 Rocket 4.1 20:37:11 10° NNW 20:41:26 55° W 20:45:40 10° S
Cosmos 2278 Rocket 3.0 20:38:16 10° SW 20:43:50 57° NW 20:49:26 10° NNE
ATLAS 2AS CENTAUR R/B 3.6 20:37:39 10° NW 20:44:28 41° WSW 20:50:49 10° S
USA 215 3.5 20:39:13 10° E 20:45:46 78° N 20:52:20 10° W
Cosmos 990 Rocket 4.0 20:41:30 10° SSW 20:46:44 77° ESE 20:52:01 10° NNE
Cosmos 2228 Rocket 3.3 20:43:03 10° SSW 20:47:31 74° WNW 20:52:03 10° N
Cosmos 2369 Rocket 3.1 20:42:51 10° SSE 20:47:35 29° ESE 20:52:23 10° NE
Resurs 01 Rocket 3.8 20:48:28 10° SW 20:51:54 22° W 20:55:21 10° NW
Cosmos 44 Rocket 3.9 20:47:17 10° NW 20:52:31 61° NE 20:57:39 10° ESE
Cosmos 1898 Rocket 3.5 20:47:39 10° SSW 20:52:57 72° ESE 20:58:18 10° NNE
Cosmos 2366 rocket 4.3 20:48:13 10° N 20:54:21 59° ENE 20:59:53 13° SSE
Cosmos 1975 3.3 20:54:35 10° N 20:58:29 48° ENE 21:01:34 15° SE
Terra 1.9 20:55:27 12° SSE 20:59:55 81° WSW 21:04:44 10° NNW
Meteor 2-9 Rocket 4.3 20:54:14 10° NNW 21:00:02 74° ENE 21:04:57 14° SSE
Cosmos 1707 Rocket 3.5 20:58:33 10° S 21:02:56 76° E 21:07:24 10° NNE
Cosmos 2181 Rocket 4.3 20:58:37 12° SSE 21:04:06 50° E 21:10:01 10° NNE
JB-3 4.5 21:01:19 10° N 21:05:12 72° WNW 21:09:00 10° SSW
NOSS 2-1 (C) 4.2 21:02:08 10° NW 21:06:21 65° NE 21:12:11 10° ESE
Cosmos 1900 4.3 21:03:27 10° SW 21:08:33 79° SE 21:13:35 10° NE
DNEPR-1 R/B 4.0 21:05:05 10° SSW 21:10:40 62° SE 21:15:23 10° NE
RESURS DK-1 2.4 21:08:28 10° NW 21:12:40 86° SW 21:15:50 17° SSE
NOSS 2-1 (D) 4.1 21:08:59 10° NW 21:13:15 70° NE 21:19:09 10° ESE
SJ 16-02 3.4 21:11:53 10° WSW 21:15:50 30° NW 21:19:48 10° NNE
Cosmos 2341 Rocket 4.3 21:14:07 10° NNW 21:20:30 71° W 21:26:26 12° S
Cosmos 1743 3.9 21:17:53 10° NNW 21:21:30 39° W 21:25:03 10° SSW
Cosmos 1733 Rocket 3.5 21:20:55 10° NNW 21:25:11 57° W 21:28:47 14° S
Cosmos 2218 Rocket 4.1 21:19:12 10° NNW 21:25:33 89° WSW 21:30:56 15° S
COSMOS 2487 4.2 21:26:43 10° N 21:29:35 24° NE 21:32:17 11° ESE
Cosmos 2227 Rocket 4.1 21:27:36 10° NNW 21:32:16 26° NNE 21:36:56 10° E
ERS-1 Rocket 4.2 21:29:36 10° SSW 21:34:10 35° W 21:38:47 10° NNW
ALOS 2 3.7 21:31:08 14° ESE 21:34:28 34° ENE 21:38:27 10° N
Cosmos 2297 Rocket 3.9 21:29:34 10° NNW 21:34:31 29° NNE 21:39:27 10° E
COSMOS 2455 3.8 21:29:04 10° NW 21:34:53 47° NNE 21:40:41 10° ESE
SPOT 5 4.3 21:31:05 10° SSW 21:35:55 36° W 21:40:52 10° NNW
SL-8 Rocket 4.3 21:30:02 10° NNW 21:36:20 69° W 21:41:47 14° S
Cosmos 1238 Rocket 4.1 21:31:03 10° NNW 21:36:52 58° W 21:41:08 14° S
Meteor 1-19 Rocket 4.1 21:35:58 13° S 21:40:53 84° ESE 21:46:23 10° NNE
Spot 4 4.1 21:38:11 18° SSE 21:41:44 65° ENE 21:46:33 10° N
Meteor 2-4 Rocket 3.9 21:39:42 17° S 21:43:58 58° E 21:49:22 10° NNE
ISS -3.4 21:42:35 10° WSW 21:45:49 43° S 21:49:03 10° E
Cosmos 1937 Rocket 3.9 21:40:48 10° SW 21:45:56 66° WNW 21:51:09 10° NNE
Cosmos 1908 Rocket 3.6 21:41:40 10° NNW 21:46:11 85° WSW 21:49:13 20° S
Cosmos 2297 4.2 21:44:10 10° SW 21:49:48 63° NW 21:55:28 10° NNE
Cosmos 1833 4.4 21:44:09 10° NW 21:49:52 65° WSW 21:53:59 19° SSE
H-2A R/B 4.1 21:50:56 10° N 21:55:03 55° WNW 21:59:06 10° SW
Sich 1 Rocket 4.4 21:53:53 10° N 21:58:15 43° ENE 22:01:13 19° SE
Okean 1 4.1 21:55:06 11° SSW 21:58:52 48° WNW 22:02:44 10° N
BREEZE-M DEB (TANK) 2.6 21:54:18 10° W 21:59:20 50° SSW 22:00:29 26° SE
Cosmos 1867 3.6 21:56:53 10° SSW 22:02:15 62° SE 22:07:41 10° NE
Cosmos 1048 Rocket 4.4 21:57:31 10° NW 22:02:42 53° WSW 22:06:10 20° S
Cosmos 1461 3.3 21:58:21 10° SW 22:03:03 75° NW 22:07:37 10° NE
Lacrosse 5 3.1 22:02:09 20° SSE 22:03:17 22° SE 22:07:08 10° E
Cosmos 1943 Rocket 2.7 22:00:18 10° SW 22:05:52 62° NW 22:11:25 10° NNE
Okean 2 Rocket 4.0 22:04:06 10° N 22:08:15 38° ENE 22:11:08 18° SE
Cosmos 2242 Rocket 3.6 22:06:00 22° S 22:08:52 76° E 22:13:23 10° NNE
NOSS 2-1 (E) 4.1 22:06:07 10° NW 22:10:41 69° SW 22:15:25 18° SE
Okean 1-7 3.0 22:08:56 23° S 22:11:33 73° E 22:15:53 10° NNE
Cosmos 1656 Rocket 3.6 22:08:33 15° SSW 22:13:05 69° ESE 22:18:39 10° NE
ATLAS CENTAUR R/B 1.2 22:11:29 21° SSW 22:13:42 54° SE 22:17:30 10° NE
SL-27 R/B 3.2 22:10:56 10° NW 22:14:05 39° WSW 22:15:31 25° SSW
Cosmos 1782 Rocket 3.6 22:14:24 10° NNW 22:18:51 73° W 22:21:28 24° S
Meteor 1-13 Rocket 4.4 22:16:23 21° S 22:19:57 58° E 22:25:22 10° NNE
Cosmos 1703 Rocket 3.5 22:17:22 22° S 22:20:12 89° ESE 22:24:42 10° NNE
Cosmos 1269 Rocket 4.0 22:20:00 10° NNW 22:25:21 86° ENE 22:28:56 21° SSE
Cosmos 2219 4.2 22:20:06 10° NNW 22:25:34 44° NE 22:31:03 10° ESE
Cosmos 1733 3.6 22:22:10 10° N 22:25:54 52° ENE 22:27:56 24° SE
Cosmos 1934 Rocket 4.0 22:21:45 10° N 22:27:54 72° ENE 22:32:08 21° SSE
USA 215 3.3 22:22:12 10° ESE 22:28:47 88° NNE 22:35:22 10° WNW
Cosmos 1607 4.0 22:24:08 10° SW 22:30:37 81° SE 22:37:09 10° NE
Cosmos 2369 Rocket 2.5 22:25:36 10° SW 22:31:13 69° NW 22:36:55 10° NNE
Cosmos 44 Rocket 4.2 22:29:07 10° NW 22:33:57 38° WSW 22:36:33 23° S
Cosmos 2344 4.4 22:27:27 10° NW 22:36:13 62° SW 22:46:12 16° SSE
Cosmos 1400 Rocket 3.8 22:33:38 10° N 22:37:32 40° ENE 22:40:04 19° SE
Cosmos 1821 Rocket 4.3 22:31:57 10° NNW 22:38:17 64° W 22:42:44 20° S
Terra 4.1 22:35:49 10° WSW 22:38:27 15° W 22:41:06 10° NW
Cosmos 2298 Rocket 4.1 22:36:27 15° SSW 22:40:55 80° WNW 22:46:17 10° NNE
Thor Agena Rocket 4.4 22:35:59 10° NNE 22:40:56 39° E 22:43:56 21° SSE
COBE Rocket 4.0 22:38:52 23° S 22:42:06 83° WSW 22:47:20 10° NNW
Cosmos 724 4.5 22:45:27 18° SSW 22:50:10 63° SE 22:56:21 10° NE
Cosmos 1726 3.5 22:51:37 10° N 22:54:59 31° ENE 22:57:19 16° SE
Cosmos 1356 Rocket 4.4 22:53:30 10° NNW 22:57:31 39° W 22:59:46 22° SSW
Okean 1 Rocket 3.8 22:54:47 10° N 22:59:02 46° ENE 23:01:53 19° SE
Okean 3 3.6 22:59:11 24° SSW 23:01:40 68° WNW 23:05:54 10° N
Cosmos 1378 3.6 23:00:27 24° SW 23:02:29 55° WNW 23:06:11 10° N
Cosmos 2221 Rocket 3.7 23:01:50 26° S 23:04:20 68° E 23:08:52 10° NNE
COSMOS 2487 3.1 23:01:22 10° NW 23:04:33 38° WSW 23:05:34 30° SSW
Cosmos 1805 3.6 23:01:28 10° NNW 23:05:17 52° W 23:07:04 28° SSW
Cosmos 1674 Rocket 4.3 23:03:14 23° SSE 23:05:35 42° E 23:09:50 10° NNE
SAR-Lupe-2 3.5 23:05:14 10° NNE 23:08:51 83° WNW 23:10:33 29° SSW
ALOS 2 3.5 23:08:32 22° SSW 23:10:47 38° W 23:14:55 10° NNW
Cosmos 1125 Rocket 3.8 23:07:52 14° SW 23:12:15 63° WNW 23:17:27 10° NNE
Nimbus 7 Rocket 4.4 23:06:55 10° NNE 23:12:51 80° ESE 23:16:52 22° SSW
Cosmos 1066 Rocket 4.3 23:09:13 21° SSW 23:13:08 77° WNW 23:18:44 10° NNE
Cosmos 1300 Rocket 4.2 23:12:09 10° NNW 23:16:22 45° W 23:18:37 24° SSW
Cosmos 2227 Rocket 2.4 23:11:36 10° NNW 23:17:17 74° NE 23:22:33 12° SE
Helios 1A 4.1 23:15:54 14° SE 23:19:11 40° ENE 23:23:05 10° N
Cosmos 2297 Rocket 2.2 23:13:35 10° NW 23:19:18 90° ENE 23:23:52 16° SSE
COSMOS 2455 3.0 23:15:09 10° NW 23:21:05 60° WSW 23:25:11 20° SSE
ISS -3.3 23:19:09 10° W 23:22:18 38° SSW 23:22:53 34° SSE
Okean 2 4.2 23:22:15 23° SSE 23:24:25 43° E 23:28:22 10° NNE
APEX 4.3 23:20:55 10° NNW 23:25:06 58° NE 23:30:21 10° SE
Cosmos 1766 3.8 23:21:30 10° NNW 23:25:19 47° W 23:27:05 27° SSW
Cosmos 1459 Rocket 4.5 23:25:14 10° N 23:31:24 56° ENE 23:36:44 13° SSE
Meteor 2-10 4.0 23:26:59 10° NNW 23:32:22 82° WSW 23:35:41 23° S
Cosmos 1455 Rocket 4.3 23:29:01 10° N 23:33:04 36° ENE 23:36:47 12° SE
Cosmos 2082 4.2 23:29:55 10° NNW 23:35:34 60° NE 23:41:14 10° SE
USA 276 3.6 23:39:53 23° SE 23:39:53 23° SE 23:41:38 10° ESE
TSX-5 3.4 23:36:36 10° NW 23:39:58 80° SW 23:42:25 21° SSE
Cosmos 1953 3.6 23:38:15 10° N 23:41:58 35° ENE 23:45:19 12° SE
SL-16 R/B 3.5 23:36:39 10° SE 23:42:32 45° ENE 23:48:26 10° N
Cosmos 614 Rocket 3.9 23:38:28 10° NNW 23:43:36 88° ENE 23:47:41 16° SSE
Cosmos 1605 Rocket 4.3 23:38:28 10° NNW 23:44:36 57° W 23:48:50 21° SSW
Cosmos 1470 2.7 23:40:49 10° NNW 23:44:45 76° W 23:46:48 27° S
Lacrosse 5 1.8 23:41:17 14° SW 23:45:34 65° SSE 23:50:39 10° ENE
SeaSat 1 3.2 23:41:23 10° NE 23:46:02 39° ESE 23:48:48 21° S
Okean 2 Rocket 4.2 23:42:22 10° NNW 23:46:16 31° W 23:48:30 20° SW
Cosmos 2151 Rocket 4.5 23:44:26 10° NNW 23:48:36 37° W 23:50:56 22° SW
Cosmos 1943 Rocket 4.5 23:46:20 10° WNW 23:50:43 23° NNW 23:55:06 10° NNE
Resurs 1-4 Rocket 3.8 23:47:58 10° NE 23:52:11 24° E 23:56:23 10° SE
Cosmos 2173 Rocket 4.1 23:46:16 10° N 23:52:29 76° ENE 23:57:40 16° SSE
ATLAS CENTAUR R/B 2.7 23:49:15 10° W 23:52:45 35° NNW 23:56:26 10° NE
Cosmos 1140 Rocket 4.0 23:48:44 10° NNW 23:53:55 59° ENE 23:59:05 10° SE
